GW3504 Weather Reports


Display with metric or nautical units.
time (UTC)temp
F
wind
direction
speed
MPH
gust
MPH
rain 1hr
in
rain 24hr
in
rain mn
in
humidity
%
barometer
mb
20260831062523 84 175 2.0 10.0 0.00 0.00 0.00 51 1012.7
20260831062030 84 207 3.0 10.0 0.00 0.00 0.00 50 1012.7
20260831061549 84 180 4.0 9.0 0.00 0.00 0.00 51 1012.7
20260831061029 84 0 2.0 9.0 0.00 0.00 0.00 51 1012.7
20260831060525 84 165 2.0 10.0 0.00 0.00 0.00 51 1012.7
20260831060055 84 164 3.0 10.0 0.00 0.00 0.00 51 1012.5
20260831055523 84 174 3.0 10.0 0.00 0.00 0.00 51 1012.6
20260831055023 84 171 2.0 11.0 0.00 0.00 0.00 51 1012.5
20260831054552 84 169 4.0 13.0 0.00 0.00 0.00 51 1012.5
20260831054032 84 207 4.0 13.0 0.00 0.00 0.00 51 1012.4
20260831053523 85 169 5.0 13.0 0.00 0.00 0.00 51 1012.4
20260831053047 85 177 5.0 12.0 0.00 0.00 0.00 51 1012.4
20260831052522 85 192 3.0 13.0 0.00 0.00 0.00 51 1012.3
20260831052025 85 144 3.0 15.0 0.00 0.00 0.00 51 1012.2
20260831051551 85 162 6.0 15.0 0.00 0.00 0.00 50 1012.2
20260831051027 85 132 3.0 15.0 0.00 0.00 0.00 51 1012.1
20260831050527 85 165 4.0 14.0 0.00 0.00 0.00 50 1012.2
20260831050055 85 147 4.0 19.0 0.00 0.00 0.00 50 1012.2
20260831045524 85 198 6.0 19.0 0.00 0.00 0.00 50 1012.2
20260831045025 85 206 5.0 14.0 0.00 0.00 0.00 50 1012.2
20260831044556 85 155 3.0 14.0 0.00 0.00 0.00 50 1012.1
20260831044025 85 179 3.0 10.0 0.00 0.00 0.00 50 1012.2
20260831043523 86 171 4.0 10.0 0.00 0.00 0.00 50 1012.1
20260831043043 86 152 3.0 14.0 0.00 0.00 0.00 50 1012.2
20260831042524 86 119 4.0 14.0 0.00 0.00 0.00 50 1012.2
20260831042025 86 160 2.0 11.0 0.00 0.00 0.00 50 1012.1
20260831041559 86 209 3.0 14.0 0.00 0.00 0.00 50 1012.0
20260831041029 86 174 3.0 14.0 0.00 0.00 0.00 49 1012.0
20260831040527 86 227 3.0 14.0 0.00 0.00 0.00 49 1012.0
20260831040043 86 169 4.0 13.0 0.00 0.00 0.00 49 1012.1
20260831035522 87 207 2.0 13.0 0.00 0.00 0.00 49 1012.0
20260831035023 87 162 3.0 13.0 0.00 0.00 0.00 48 1012.0
20260831034553 87 161 3.0 14.0 0.00 0.00 0.00 48 1011.9
20260831034026 87 157 4.0 14.0 0.00 0.00 0.00 48 1011.9
20260831033523 87 149 3.0 10.0 0.00 0.00 0.00 48 1011.9
20260831033048 87 180 3.0 10.0 0.00 0.00 0.00 47 1011.9
20260831032525 87 206 3.0 10.0 0.00 0.00 0.00 47 1011.9
20260831032024 87 94 4.0 10.0 0.00 0.00 0.00 47 1011.8
20260831031551 88 155 4.0 14.0 0.00 0.00 0.00 46 1011.8
20260831031026 88 168 5.0 14.0 0.00 0.00 0.00 46 1011.8
20260831030522 88 144 6.0 14.0 0.00 0.00 0.00 46 1011.7
20260831030053 88 171 4.0 13.0 0.00 0.00 0.00 45 1011.8
20260831025525 88 164 5.0 13.0 0.00 0.00 0.00 45 1011.8
20260831025031 89 175 4.0 13.0 0.00 0.00 0.00 45 1011.8
20260831024547 89 167 3.0 16.0 0.00 0.00 0.00 45 1011.8
20260831024024 89 163 2.0 16.0 0.00 0.00 0.00 44 1011.8
20260831023525 89 217 3.0 11.0 0.00 0.00 0.00 44 1011.8
20260831023044 89 155 3.0 13.0 0.00 0.00 0.00 44 1011.7
20260831022528 89 196 4.0 13.0 0.00 0.00 0.00 44 1011.7
20260831022025 90 154 5.0 16.0 0.00 0.00 0.00 43 1011.7
20260831021552 90 190 5.0 16.0 0.00 0.00 0.00 44 1011.6
20260831021024 90 191 4.0 12.0 0.00 0.00 0.00 44 1011.4
20260831020525 90 166 4.0 14.0 0.00 0.00 0.00 44 1011.5
20260831020051 90 169 4.0 14.0 0.00 0.00 0.00 44 1011.4
20260831015523 90 175 5.0 14.0 0.00 0.00 0.00 43 1011.4
20260831015027 90 187 3.0 14.0 0.00 0.00 0.00 44 1011.4
20260831014549 90 167 4.0 14.0 0.00 0.00 0.00 44 1011.2
20260831014024 90 141 7.0 14.0 0.00 0.00 0.00 44 1011.2
20260831013525 90 149 4.0 14.0 0.00 0.00 0.00 44 1011.2
20260831013054 91 157 5.0 14.0 0.00 0.00 0.00 44 1011.1
20260831012525 91 182 2.0 11.0 0.00 0.00 0.00 44 1011.1
20260831012024 91 164 3.0 11.0 0.00 0.00 0.00 43 1011.0
20260831011548 92 180 2.0 9.0 0.00 0.00 0.00 43 1011.0
20260831011026 92 149 4.0 10.0 0.00 0.00 0.00 42 1011.0
20260831010526 92 158 3.0 10.0 0.00 0.00 0.00 42 1011.0
20260831010107 92 165 3.0 10.0 0.00 0.00 0.00 42 1010.9
20260831005523 93 181 4.0 10.0 0.00 0.00 0.00 42 1010.8
20260831005027 93 158 4.0 10.0 0.00 0.00 0.00 41 1010.8
20260831004552 93 179 3.0 10.0 0.00 0.00 0.00 41 1010.9
20260831004024 94 201 2.0 11.0 0.00 0.00 0.00 41 1010.9
20260831003524 94 0 4.0 11.0 0.00 0.00 0.00 40 1010.9
20260831003103 94 186 3.0 12.0 0.00 0.00 0.00 40 1010.9
20260831002524 95 0 2.0 14.0 0.00 0.00 0.00 40 1010.9
20260831002025 95 175 4.0 14.0 0.00 0.00 0.00 40 1010.8
20260831001547 95 175 3.0 11.0 0.00 0.00 0.00 40 1010.8
20260831001024 96 169 3.0 12.0 0.00 0.00 0.00 39 1010.7
20260831000523 96 175 3.0 12.0 0.00 0.00 0.00 40 1010.9
20260831000049 96 170 3.0 11.0 0.00 0.00 0.00 39 1010.8
20260830235528 96 171 2.0 12.0 0.00 0.00 0.00 39 1010.8
20260830235027 97 178 1.0 13.0 0.00 0.00 0.00 39 1010.6
20260830234546 97 138 6.0 13.0 0.00 0.00 0.00 38 1010.6
20260830234025 97 209 3.0 11.0 0.00 0.00 0.00 38 1010.6
20260830233529 98 173 4.0 11.0 0.00 0.00 0.00 38 1010.6
20260830233050 98 186 2.0 9.0 0.00 0.00 0.00 38 1010.5
20260830232525 98 160 3.0 15.0 0.00 0.00 0.00 37 1010.5
20260830232025 98 0 4.0 19.0 0.00 0.00 0.00 36 1010.5
20260830231549 98 171 6.0 20.0 0.00 0.00 0.00 35 1010.4
20260830231023 98 160 5.0 20.0 0.00 0.00 0.00 35 1010.6
20260830230527 99 143 6.0 15.0 0.00 0.00 0.00 34 1010.4
20260830230045 99 182 3.0 18.0 0.00 0.00 0.00 35 1010.3
20260830225524 99 333 5.0 20.0 0.00 0.00 0.00 35 1010.3
20260830225022 99 184 7.0 20.0 0.00 0.00 0.00 35 1010.3
20260830224548 99 161 7.0 16.0 0.00 0.00 0.00 34 1010.3
20260830224025 99 128 6.0 19.0 0.00 0.00 0.00 35 1010.2
20260830223523 99 227 7.0 22.0 0.00 0.00 0.00 35 1010.3
20260830223045 99 173 7.0 22.0 0.00 0.00 0.00 35 1010.3
20260830222524 99 126 3.0 17.0 0.00 0.00 0.00 36 1010.4
20260830222024 99 198 6.0 17.0 0.00 0.00 0.00 35 1010.3
20260830221545 99 130 4.0 19.0 0.00 0.00 0.00 36 1010.3
20260830221024 99 155 4.0 19.0 0.00 0.00 0.00 36 1010.3
20260830220526 99 152 6.0 19.0 0.00 0.00 0.00 36 1010.4
20260830220051 100 183 6.0 14.0 0.00 0.00 0.00 36 1010.4
20260830215527 100 236 4.0 17.0 0.00 0.00 0.00 36 1010.4
20260830215027 100 125 4.0 18.0 0.00 0.00 0.00 36 1010.4
20260830214544 100 169 8.0 18.0 0.00 0.00 0.00 36 1010.4
20260830214026 100 181 6.0 17.0 0.00 0.00 0.00 35 1010.4
20260830213530 100 148 8.0 15.0 0.00 0.00 0.00 35 1010.6
20260830213049 100 158 5.0 14.0 0.00 0.00 0.00 37 1010.6
20260830212524 100 174 3.0 19.0 0.00 0.00 0.00 37 1010.6
20260830212027 100 202 4.0 20.0 0.00 0.00 0.00 38 1010.6
20260830211548 99 126 9.0 20.0 0.00 0.00 0.00 38 1010.8
20260830211026 100 213 5.0 19.0 0.00 0.00 0.00 37 1010.8
20260830210524 100 149 4.0 19.0 0.00 0.00 0.00 36 1010.8
20260830210046 100 128 6.0 16.0 0.00 0.00 0.00 37 1010.8
20260830205527 100 185 5.0 16.0 0.00 0.00 0.00 38 1011.0
20260830205023 100 161 4.0 19.0 0.00 0.00 0.00 38 1011.0
20260830204544 100 209 4.0 19.0 0.00 0.00 0.00 38 1011.0
20260830204025 100 201 6.0 16.0 0.00 0.00 0.00 38 1011.0
20260830203524 100 162 3.0 16.0 0.00 0.00 0.00 38 1011.1
20260830203051 99 222 5.0 16.0 0.00 0.00 0.00 38 1011.3
20260830202526 99 325 5.0 16.0 0.00 0.00 0.00 38 1011.4
20260830202024 100 169 4.0 16.0 0.00 0.00 0.00 37 1011.6
20260830201549 100 136 2.0 13.0 0.00 0.00 0.00 39 1011.5
20260830201027 100 115 4.0 18.0 0.00 0.00 0.00 39 1011.5
20260830200528 99 0 4.0 18.0 0.00 0.00 0.00 39 1011.7
20260830200047 99 254 3.0 21.0 0.00 0.00 0.00 39 1011.8
20260830195523 98 171 8.0 21.0 0.00 0.00 0.00 39 1011.8
20260830195025 99 177 4.0 16.0 0.00 0.00 0.00 40 1012.0
20260830194559 99 95 4.0 15.0 0.00 0.00 0.00 40 1012.0
20260830194028 99 180 5.0 15.0 0.00 0.00 0.00 41 1012.0
20260830193523 99 150 3.0 10.0 0.00 0.00 0.00 39 1012.1
20260830193049 99 325 3.0 13.0 0.00 0.00 0.00 39 1012.2
20260830192525 99 0 3.0 17.0 0.00 0.00 0.00 41 1012.2
20260830192025 98 174 6.0 17.0 0.00 0.00 0.00 41 1012.2
20260830191547 98 114 5.0 17.0 0.00 0.00 0.00 41 1012.2
20260830191026 97 165 5.0 17.0 0.00 0.00 0.00 42 1012.2
20260830190524 97 166 5.0 18.0 0.00 0.00 0.00 43 1012.3
20260830190041 97 141 7.0 18.0 0.00 0.00 0.00 41 1012.3
20260830185523 97 217 3.0 19.0 0.00 0.00 0.00 43 1012.3
20260830185025 97 205 5.0 19.0 0.00 0.00 0.00 42 1012.4
20260830184549 97 184 3.0 17.0 0.00 0.00 0.00 43 1012.5
20260830184024 96 261 5.0 17.0 0.00 0.00 0.00 43 1012.5
20260830183523 96 180 5.0 17.0 0.00 0.00 0.00 44 1012.5
20260830183044 96 216 4.0 17.0 0.00 0.00 0.00 43 1012.6
20260830182524 96 340 3.0 18.0 0.00 0.00 0.00 44 1012.7
20260830182026 95 148 6.0 18.0 0.00 0.00 0.00 45 1012.7
20260830181549 95 175 7.0 15.0 0.00 0.00 0.00 45 1012.8
20260830181024 95 137 3.0 19.0 0.00 0.00 0.00 46 1012.8
20260830180523 95 217 5.0 19.0 0.00 0.00 0.00 45 1012.7
20260830180049 95 269 4.0 14.0 0.00 0.00 0.00 44 1012.9
20260830175523 94 214 3.0 21.0 0.00 0.00 0.00 46 1012.9
20260830175023 93 192 6.0 21.0 0.00 0.00 0.00 45 1013.1
20260830174603 94 176 4.0 14.0 0.00 0.00 0.00 45 1013.0
20260830174023 94 154 5.0 15.0 0.00 0.00 0.00 46 1013.0
20260830173524 93 352 5.0 15.0 0.00 0.00 0.00 47 1013.1
20260830173049 93 173 5.0 15.0 0.00 0.00 0.00 46 1013.0
20260830172523 93 279 4.0 15.0 0.00 0.00 0.00 47 1013.1
20260830172026 92 97 5.0 18.0 0.00 0.00 0.00 48 1013.1
20260830171600 92 117 5.0 20.0 0.00 0.00 0.00 49 1013.2
20260830171026 91 0 6.0 20.0 0.00 0.00 0.00 49 1013.3
20260830170531 92 205 6.0 14.0 0.00 0.00 0.00 48 1013.4
20260830170048 91 199 4.0 20.0 0.00 0.00 0.00 50 1013.4
20260830165529 91 130 5.0 20.0 0.00 0.00 0.00 50 1013.4
20260830165023 90 153 6.0 20.0 0.00 0.00 0.00 51 1013.4
20260830164542 90 165 6.0 16.0 0.00 0.00 0.00 49 1013.4
20260830164028 90 163 2.0 14.0 0.00 0.00 0.00 51 1013.6
20260830163524 90 191 5.0 17.0 0.00 0.00 0.00 51 1013.5
20260830163055 89 167 6.0 17.0 0.00 0.00 0.00 51 1013.5
20260830162526 88 0 5.0 17.0 0.00 0.00 0.00 53 1013.5
20260830162026 88 161 6.0 17.0 0.00 0.00 0.00 52 1013.7
20260830161604 88 231 4.0 14.0 0.00 0.00 0.00 53 1013.7
20260830161024 88 132 5.0 14.0 0.00 0.00 0.00 52 1013.7
20260830160527 88 243 3.0 15.0 0.00 0.00 0.00 53 1013.6
20260830160044 88 161 4.0 15.0 0.00 0.00 0.00 53 1013.6
20260830155531 87 178 4.0 16.0 0.00 0.00 0.00 53 1013.5
20260830155029 87 182 4.0 16.0 0.00 0.00 0.00 54 1013.5
20260830154551 86 170 5.0 14.0 0.00 0.00 0.00 54 1013.5
20260830154026 86 157 4.0 14.0 0.00 0.00 0.00 54 1013.5
20260830153525 86 159 3.0 16.0 0.00 0.00 0.00 55 1013.5
20260830153048 85 166 5.0 16.0 0.00 0.00 0.00 55 1013.4
20260830152526 85 275 5.0 16.0 0.00 0.00 0.00 55 1013.4
20260830152024 85 174 2.0 15.0 0.00 0.00 0.00 57 1013.4
20260830151555 84 176 4.0 15.0 0.00 0.00 0.00 56 1013.3
20260830151030 84 136 6.0 15.0 0.00 0.00 0.00 56 1013.3
20260830150523 84 205 4.0 13.0 0.00 0.00 0.00 56 1013.3
20260830150048 84 176 4.0 12.0 0.00 0.00 0.00 56 1013.2
20260830145529 83 191 5.0 12.0 0.00 0.00 0.00 57 1013.1
20260830145026 83 173 3.0 14.0 0.00 0.00 0.00 58 1013.1
20260830144543 83 180 3.0 14.0 0.00 0.00 0.00 59 1013.1
20260830144024 82 0 3.0 14.0 0.00 0.00 0.00 58 1013.2
20260830143525 82 158 3.0 13.0 0.00 0.00 0.00 60 1013.2
20260830143048 81 194 3.0 15.0 0.00 0.00 0.00 60 1013.3
20260830142523 81 130 6.0 15.0 0.00 0.00 0.00 60 1013.2
20260830142028 80 179 3.0 10.0 0.00 0.00 0.00 61 1013.3
20260830141543 80 173 3.0 11.0 0.00 0.00 0.00 61 1013.2
20260830141029 80 146 4.0 13.0 0.00 0.00 0.00 60 1013.3
20260830140524 80 111 3.0 13.0 0.00 0.00 0.00 60 1013.3
20260830140104 80 33 4.0 13.0 0.00 0.00 0.00 60 1013.4
20260830135532 80 174 3.0 13.0 0.00 0.00 0.00 60 1013.5
20260830135025 80 223 4.0 12.0 0.00 0.00 0.00 59 1013.5
20260830134554 80 165 2.0 13.0 0.00 0.00 0.00 60 1013.6
20260830134027 81 125 2.0 13.0 0.00 0.00 0.00 59 1013.6
20260830133525 80 162 4.0 11.0 0.00 0.00 0.00 60 1013.5
20260830133049 80 156 3.0 12.0 0.00 0.00 0.00 61 1013.6
20260830132525 79 152 4.0 12.0 0.00 0.00 0.00 62 1013.7
20260830132024 78 189 3.0 12.0 0.00 0.00 0.00 62 1013.7
20260830131549 78 180 4.0 13.0 0.00 0.00 0.00 63 1013.6
20260830131023 77 220 3.0 13.0 0.00 0.00 0.00 64 1013.7
20260830130528 77 171 2.0 11.0 0.00 0.00 0.00 64 1013.8
20260830130054 76 198 2.0 9.0 0.00 0.00 0.00 65 1013.8
20260830125525 76 287 2.0 9.0 0.00 0.00 0.00 65 1013.8
20260830125025 76 150 3.0 11.0 0.00 0.00 0.00 66 1013.8
20260830124549 76 175 4.0 11.0 0.00 0.00 0.00 66 1013.8
20260830124027 76 163 4.0 8.0 0.00 0.00 0.00 66 1013.7
20260830123528 76 166 3.0 8.0 0.00 0.00 0.00 66 1013.8
20260830123055 76 217 3.0 9.0 0.00 0.00 0.00 65 1013.8
20260830122526 75 155 3.0 9.0 0.00 0.00 0.00 65 1013.7
20260830122026 75 173 3.0 9.0 0.00 0.00 0.00 65 1013.7
20260830121547 75 181 3.0 11.0 0.00 0.00 0.00 65 1013.7
20260830121026 76 156 4.0 11.0 0.00 0.00 0.00 64 1013.7
20260830120527 76 161 2.0 10.0 0.00 0.00 0.00 64 1013.9
20260830120053 76 163 3.0 10.0 0.00 0.00 0.00 64 1013.9
20260830115524 76 188 4.0 11.0 0.00 0.00 0.00 63 1013.7
20260830115026 76 175 3.0 11.0 0.00 0.00 0.00 63 1013.7
20260830114546 76 188 2.0 10.0 0.00 0.00 0.00 62 1013.7
20260830114024 76 190 3.0 10.0 0.00 0.00 0.00 62 1013.8
20260830113523 76 173 3.0 10.0 0.00 0.00 0.00 61 1013.8
20260830113045 77 172 4.0 11.0 0.00 0.00 0.00 61 1013.7
20260830112522 77 149 5.0 11.0 0.00 0.00 0.00 61 1013.7
20260830112024 77 207 4.0 11.0 0.00 0.00 0.00 61 1013.8
20260830111548 77 166 3.0 11.0 0.00 0.00 0.00 60 1013.8
20260830111025 77 171 3.0 12.0 0.00 0.00 0.00 60 1013.7
20260830110524 77 177 5.0 13.0 0.00 0.00 0.00 60 1013.7
20260830110050 77 175 5.0 13.0 0.00 0.00 0.00 60 1013.8
20260830105523 77 151 4.0 12.0 0.00 0.00 0.00 60 1013.8
20260830105023 77 159 5.0 12.0 0.00 0.00 0.00 59 1013.8
20260830104549 77 179 5.0 11.0 0.00 0.00 0.00 59 1013.7
20260830104023 77 173 4.0 10.0 0.00 0.00 0.00 59 1013.7
20260830103523 77 192 5.0 10.0 0.00 0.00 0.00 59 1013.6
20260830103050 77 175 2.0 11.0 0.00 0.00 0.00 59 1013.5
20260830102526 78 175 4.0 13.0 0.00 0.00 0.00 59 1013.6
20260830102023 78 163 5.0 14.0 0.00 0.00 0.00 59 1013.7
20260830101558 78 168 5.0 14.0 0.00 0.00 0.00 59 1013.7
20260830101025 77 171 3.0 9.0 0.00 0.00 0.00 59 1013.7
20260830100524 77 157 2.0 9.0 0.00 0.00 0.00 59 1013.6
20260830100057 77 166 3.0 11.0 0.00 0.00 0.00 59 1013.5
20260830095524 77 184 4.0 12.0 0.00 0.00 0.00 59 1013.6
20260830095022 77 183 4.0 12.0 0.00 0.00 0.00 59 1013.5
20260830094556 77 173 4.0 11.0 0.00 0.00 0.00 59 1013.5
20260830094022 77 192 3.0 11.0 0.00 0.00 0.00 59 1013.5
20260830093522 77 178 3.0 15.0 0.00 0.00 0.00 59 1013.5
20260830093046 77 198 2.0 15.0 0.00 0.00 0.00 60 1013.5
20260830092528 77 176 3.0 11.0 0.00 0.00 0.00 60 1013.5
20260830092027 77 159 4.0 11.0 0.00 0.00 0.00 59 1013.4
20260830091544 77 214 3.0 9.0 0.00 0.00 0.00 59 1013.4
20260830091027 78 166 4.0 12.0 0.00 0.00 0.00 59 1013.3
20260830090528 78 199 3.0 14.0 0.00 0.00 0.00 59 1013.4
20260830090054 78 0 4.0 14.0 0.00 0.00 0.00 59 1013.4
20260830085525 78 161 4.0 12.0 0.00 0.00 0.00 59 1013.5
20260830085027 78 202 3.0 12.0 0.00 0.00 0.00 58 1013.5
20260830084546 78 169 2.0 9.0 0.00 0.00 0.00 59 1013.4
20260830084024 78 190 3.0 10.0 0.00 0.00 0.00 59 1013.4
20260830083526 78 188 3.0 10.0 0.00 0.00 0.00 58 1013.4
20260830083052 78 190 2.0 9.0 0.00 0.00 0.00 58 1013.4
20260830082523 79 0 2.0 10.0 0.00 0.00 0.00 58 1013.5
20260830082026 79 173 3.0 11.0 0.00 0.00 0.00 58 1013.4
20260830081548 79 171 3.0 11.0 0.00 0.00 0.00 58 1013.5
20260830081024 79 190 2.0 10.0 0.00 0.00 0.00 57 1013.4
20260830080526 79 155 4.0 10.0 0.00 0.00 0.00 57 1013.5
20260830080052 79 166 4.0 10.0 0.00 0.00 0.00 57 1013.4
20260830075525 80 173 3.0 11.0 0.00 0.00 0.00 57 1013.4
20260830075027 80 168 4.0 11.0 0.00 0.00 0.00 57 1013.4
20260830074557 80 167 4.0 11.0 0.00 0.00 0.00 57 1013.4
20260830074028 80 190 3.0 9.0 0.00 0.00 0.00 57 1013.4
20260830073524 80 200 3.0 11.0 0.00 0.00 0.00 57 1013.3
20260830073050 80 214 2.0 11.0 0.00 0.00 0.00 56 1013.3
20260830072525 80 167 4.0 10.0 0.00 0.00 0.00 56 1013.2
20260830072025 80 172 2.0 13.0 0.00 0.00 0.00 57 1013.1
20260830071558 81 173 4.0 13.0 0.00 0.00 0.00 56 1013.2
20260830071023 81 157 4.0 12.0 0.00 0.00 0.00 56 1013.2
20260830070524 81 180 4.0 11.0 0.00 0.00 0.00 57 1013.2
20260830070044 81 171 3.0 11.0 0.00 0.00 0.00 57 1013.3
20260830065527 81 170 3.0 14.0 0.00 0.00 0.00 57 1013.5
20260830065025 81 168 3.0 14.0 0.00 0.00 0.00 56 1013.3
20260830064546 81 132 3.0 15.0 0.00 0.00 0.00 56 1013.3
20260830064021 81 180 6.0 15.0 0.00 0.00 0.00 56 1013.3
20260830063525 82 75 5.0 13.0 0.00 0.00 0.00 56 1013.4
20260830063052 82 225 4.0 13.0 0.00 0.00 0.00 56 1013.5